Piloten Info

Wichtige Hinweise:

  • Tower Frequenz 122,330 kHz - keine Landung ohne Funkkontakt
  • PPR Betrieb
  • Temporäre Hindernisse (Baukräne) nahe dem Flugplatz durch Bauarbeiten entlang der Nürnberger Straße (Östliche Seite).
  • Starts auf RWY 09 sind nicht gestattet. Start generell auf RWY 27. Bei Planung Rückenwinde berücksichtigen!
  • Bei Anflügen auf RWY 27 sind Hindernisse vorhanden, aus diesem Grund die versetzte Schwelle27!
  • Der Flugverein Neumarkt führt seine Starts generell auf RWY 27 und Landungen auf RWY09 durch.
  • Es besteht keine Tankmöglichkeit.

Diese Hinweis sind als Ergänzung / Hilfe zur regulären Flugplanung gedacht.

Auszüge aus AIP VFR ohne Gewähr - es gelten die offiziellen Veröffentlichungen.




Wind Infos (info ohne Gewähr - nicht geeicht)

Wind Speed
Wind Direction


METAR Informationen der nächstgelegenen Flughäfen


EDDN / Flughafen Nürnberg „Albrecht Dürer“

EDDN 272150Z AUTO 01003KT 340V050 9999 OVC027 00/M03 Q1022

ETIC / Fliegerhorst Grafenwöhr AAF

ETIC 272155Z AUTO 00000KT 9999 OVC016 M01/M03 A3015 RMK AO2 SLP229 T10061035 410021024 $

ETIH / Fliegerhorst Hohenfels AAF

ETIH 272155Z AUTO 00000KT 9999 FEW008 OVC019 M02/M04 A3017 RMK AO2 FZDZB17E31 SLP237 P0000 T10171042 410091023 $